This is the latest recevied weather packets stored in our database for station/object LX0APE-4. If no packets are shown the sender has not sent any weather packets the latest 10 day(s).
| Time | Temp. | Humidity | Pressure | Rain* | Wind** | Luminosity | Snow |
|---|---|---|---|---|---|---|---|
| 1777639922 | 30° C | 15% | 5020.4 hPa | 0 mm | - | - | - |
| 1777639622 | 29.44° C | 15% | 5020.4 hPa | 0 mm | - | - | - |
| 1777639322 | 28.89° C | 16% | 5020.5 hPa | 0 mm | - | - | - |
| 1777639022 | 28.89° C | 16% | 5020.5 hPa | 0 mm | - | - | - |
| 1777638722 | 28.33° C | 16% | 5020.6 hPa | 0 mm | - | - | - |
| 1777638422 | 28.33° C | 17% | 5020.5 hPa | 0 mm | - | - | - |
| 1777638122 | 27.78° C | 17% | 5020.6 hPa | 0 mm | - | - | - |
| 1777637822 | 26.67° C | 18% | 5020.6 hPa | 0 mm | - | - | - |
| 1777637522 | 26.67° C | 19% | 5020.6 hPa | 0 mm | - | - | - |
| 1777637222 | 26.11° C | 19% | 5020.8 hPa | 0 mm | - | - | - |
| 1777636922 | 25.56° C | 20% | 5020.8 hPa | 0 mm | - | - | - |
| 1777636622 | 25° C | 20% | 5020.6 hPa | 0 mm | - | - | - |
| 1777636326 | 25° C | 21% | 5020.9 hPa | 0 mm | - | - | - |
| 1777636322 | 25° C | 21% | 5020.9 hPa | 0 mm | - | - | - |
| 1777636022 | 24.44° C | 21% | 5020.9 hPa | 0 mm | - | - | - |
| 1777635722 | 23.89° C | 22% | 5021.1 hPa | 0 mm | - | - | - |
| 1777635422 | 23.89° C | 22% | 5021.2 hPa | 0 mm | - | - | - |
| 1777635122 | 23.89° C | 22% | 5021.2 hPa | 0 mm | - | - | - |
| 1777634822 | 23.33° C | 22% | 5021.3 hPa | 0 mm | - | - | - |
| 1777634522 | 22.78° C | 23% | 5021.2 hPa | 0 mm | - | - | - |
| 1777634222 | 22.78° C | 23% | 5021.3 hPa | 0 mm | - | - | - |
| 1777633922 | 22.22° C | 23% | 5021.4 hPa | 0 mm | - | - | - |
| 1777633626 | 21.67° C | 24% | 5021.4 hPa | 0 mm | - | - | - |
| 1777633622 | 21.67° C | 24% | 5021.4 hPa | 0 mm | - | - | - |
| 1777633322 | 21.11° C | 24% | 5021.5 hPa | 0 mm | - | - | - |
* Rain latest hour (hover to see other rain measurements)
** Current wind speed in m/s (hover to see current wind gust speed)